Regional Weather Roundup
Issued by NWS Cleveland, OH

Home | Current Version | Previous Version | Graphics & Text | Print | Product List | Glossary On
Versions: 1 2 3 4 5 6 7 8 9 10 11 12 13 14 15 16 17 18 19 20 21 22 23 24 25 26 27 28 29 30 31 32 33 34 35 36 37 38 39 40 41 42 43 44 45 46 47 48 49 50
095
ASUS41 KCLE 260410
RWRCLE
OHIO REGIONAL WEATHER ROUNDUP
NATIONAL WEATHER SERVICE WILMINGTON, OH
1200 AM EDT FRI AUG 26 2016

NOTE: "FAIR" INDICATES FEW OR NO CLOUDS BELOW 12,000 FEET WITH NO
SIGNIFICANT WEATHER AND/OR OBSTRUCTIONS TO VISIBILITY.

OHZ001>008-015>018-024>027-034-035-043-044-260500-
   NORTHWEST OHIO

CITY           SKY/WX    TMP DP  RH WIND       PRES   REMARKS
DEFIANCE       CLOUDY    74  70  87 CALM      30.06R
FINDLAY        FAIR      73  68  84 W3        30.05R
TOLEDO EXPRESS FAIR      73  71  93 W7        30.04S
TOLEDO EXEC    FAIR      74  70  87 W6        30.04S
LIMA           MOCLDY    74  72  93 W3        30.07S
$$

OHZ009>014-019>023-028>033-038-089-260500-
   NORTHEAST OHIO

CITY           SKY/WX    TMP DP  RH WIND       PRES   REMARKS
CLE-HOPKINS    FAIR      80  69  69 W10       30.05R
CLE-LAKEFRONT  FAIR      79  73  82 W12       30.01R
CUY CO. ARPT   NOT AVBL
LORAIN-ELYRIA  FAIR      73  68  84 NW7       30.04S
ASHTABULA      FOG       71  71 100 CALM      30.02S VSB 3/4
AKRON-CANTON   CLOUDY    77  68  73 NW7       30.05S
WOOSTER        FAIR      72  67  84 W6        30.07R
MANSFIELD      MOCLDY    75  69  81 W6        30.07S
YOUNGSTOWN     MOCLDY    72  70  93 W5        30.03S
$$

OHZ042-051>053-060>062-070>072-077>081-260500-
  SOUTHWEST OHIO

CITY           SKY/WX    TMP DP  RH WIND       PRES   REMARKS
CINC-COVINGTON FAIR      79  72  79 VRB5      30.09R
CINC-LUNKEN    FAIR      74  74 100 CALM      30.08R
HAMILTON       FAIR      73  71  93 CALM      30.08R
DAYTON         FAIR      75  71  87 W3        30.09S
WRIGHT-PAT AFB MOCLDY    79  73  83 CALM      30.07S
DAYTON GENERAL FAIR      78  72  81 CALM      30.08S
WILMINGTON     FAIR      74  72  93 SW3       30.08S
$$

OHZ036-037-039>041-045>050-054>059-063>069-073>076-082>088-260500-
  CENTRAL AND SOUTHEAST OHIO

CITY           SKY/WX    TMP DP  RH WIND       PRES   REMARKS
COLUMBUS       FAIR      77  71  82 W6        30.06R
OSU AIRPORT    FAIR      76  72  87 NW5       30.06S
BOLTON FIELD   FAIR      76  72  88 NW3       30.07S
RICKENBACK AFB FAIR      76  73  93 SW5       30.06R
NEWARK         FAIR      74  72  93 CALM      30.06R
MARION         FAIR      76  69  79 W5        30.07S
LANCASTER      FAIR      76  73  91 W3        30.07S
ZANESVILLE     FAIR      78  72  81 W6        30.05S
NEW PHILLY     MOCLDY    81  72  74 W5        30.05R
$$




USA.gov is the U.S. government's official web portal to all federal, state and local government web resources and services.